TimeMST,TemperatureF,Dew PointF,Humidity,Sea Level PressureIn,VisibilityMPH,Wind Direction,Wind SpeedMPH,Gust SpeedMPH,PrecipitationIn,Events,Conditions,WindDirDegrees,DateUTC
12:53 AM,12.0,8.1,84,30.23,10.0,Calm,Calm,-,N/A,,Clear,0,2012-11-28 07:53:00
1:53 AM,12.9,10.0,88,30.23,10.0,Calm,Calm,-,N/A,,Clear,0,2012-11-28 08:53:00
2:53 AM,15.1,12.0,88,30.21,10.0,Calm,Calm,-,N/A,,Clear,0,2012-11-28 09:53:00
3:53 AM,19.0,15.1,85,30.18,10.0,SSW,3.5,-,N/A,,Clear,200,2012-11-28 10:53:00
4:53 AM,18.0,15.1,88,30.20,10.0,Calm,Calm,-,N/A,,Clear,0,2012-11-28 11:53:00
5:53 AM,19.9,16.0,85,30.18,10.0,Calm,Calm,-,N/A,,Clear,0,2012-11-28 12:53:00
6:53 AM,19.9,15.1,81,30.19,10.0,Calm,Calm,-,N/A,,Clear,0,2012-11-28 13:53:00
7:53 AM,19.9,16.0,85,30.19,10.0,Calm,Calm,-,N/A,,Clear,0,2012-11-28 14:53:00
8:53 AM,23.0,18.0,81,30.18,10.0,North,3.5,-,N/A,,Clear,10,2012-11-28 15:53:00
9:53 AM,24.1,19.0,81,30.20,10.0,NNW,5.8,-,N/A,,Clear,340,2012-11-28 16:53:00
10:53 AM,25.0,21.0,85,30.20,10.0,South,4.6,-,N/A,,Clear,180,2012-11-28 17:53:00
11:53 AM,28.0,21.0,75,30.17,10.0,Calm,Calm,-,N/A,,Clear,0,2012-11-28 18:53:00
12:53 PM,30.9,23.0,72,30.14,10.0,NNW,4.6,-,N/A,,Clear,340,2012-11-28 19:53:00
1:53 PM,30.0,24.1,79,30.14,10.0,Calm,Calm,-,N/A,,Clear,0,2012-11-28 20:53:00
2:53 PM,28.0,21.9,78,30.12,10.0,SSW,5.8,-,N/A,,Clear,200,2012-11-28 21:53:00
3:53 PM,23.0,19.0,85,30.11,10.0,SSW,4.6,-,N/A,,Clear,200,2012-11-28 22:53:00
4:53 PM,21.9,19.0,89,30.11,10.0,Calm,Calm,-,N/A,,Clear,0,2012-11-28 23:53:00
5:53 PM,19.9,16.0,85,30.09,10.0,Calm,Calm,-,N/A,,Clear,0,2012-11-29 00:53:00
6:53 PM,19.0,15.1,85,30.07,10.0,Calm,Calm,-,N/A,,Clear,0,2012-11-29 01:53:00
7:53 PM,19.0,18.0,96,30.06,10.0,Calm,Calm,-,N/A,,Clear,0,2012-11-29 02:53:00
8:53 PM,21.9,18.0,85,30.03,10.0,Calm,Calm,-,N/A,,Clear,0,2012-11-29 03:53:00
9:53 PM,19.9,17.1,89,30.03,10.0,SE,4.6,-,N/A,,Clear,140,2012-11-29 04:53:00
10:53 PM,24.1,19.9,84,29.99,10.0,South,4.6,-,N/A,,Clear,170,2012-11-29 05:53:00
11:53 PM,19.9,17.1,89,29.97,10.0,Calm,Calm,-,N/A,,Clear,0,2012-11-29 06:53:00